Oscoda, MI

8:31 AM EST on December 13, 2019 (GMT -0500)
Oscoda-Wurtsmith

Weather History for KOSC - October, 2019

Change the Weather History Date:

Friday, October 25, 2019

  Actual Average Record
Temperature  
Mean Temperature 40 °F -  
Max Temperature 52 °F 51 °F 75 °F (2012)
Min Temperature 28 °F 36 °F 21 °F (2018)
Degree Days  
Heating Degree Days 25    
Moisture  
Dew Point 33 °F    
Average Humidity 77    
Maximum Humidity 99    
Minimum Humidity 40    
Precipitation  
Precipitation 0.00 in - - ()
Sea Level Pressure  
Sea Level Pressure 30.26 in    
Wind  
Wind Speed 2 mph ()    
Max Wind Speed 10 mph    
Max Gust Speed 16 mph    
Visibility 10.0 miles    
Events      
Averages and records for this station are not official NWS values.
T = Trace of Precipitation, MM = Missing Value Source: Averaged Metar Reports

Daily Weather History Graph

Daily Weather History Graph

Search for Another Location

Airport or City:

Astronomy

Oct. 25, 2019 Rise Set
Actual Time 8:01 AM EDT 6:33 PM EDT
Civil Twilight 7:31 AM EDT 7:03 PM EDT
Nautical Twilight 6:57 AM EDT 7:37 PM EDT
Astronomical Twilight 6:23 AM EDT 8:10 PM EDT
Moon 4:31 AM EDT (10/25) 5:43 PM EDT (10/25)
Length of Visible Light 11h 31m
Length of Day
10h 32m
Waning Crescent, 9% of the Moon is Illuminated
Oct 25
Waning Crescent
Oct 27
New
Nov 4
First Quarter
Nov 12
Full
Nov 19
Last Quarter

Hourly Weather History & Observations

Time (EDT) Temp. Windchill Dew Point Humidity Pressure Visibility Wind Dir Wind Speed Gust Speed Precip Events Conditions
12:17 AM 34.7 °F - 32.0 °F 90% 30.33 in 10.0 mi Calm Calm - N/A   Overcast
12:35 AM 35.4 °F - 32.2 °F 88% 30.32 in 10.0 mi Calm Calm - N/A   Mostly Cloudy
12:36 AM 35.4 °F - 32.2 °F 88% 30.32 in 10.0 mi Calm Calm - N/A   Mostly Cloudy
12:55 AM 35.1 °F - 32.2 °F 89% 30.32 in 10.0 mi Calm Calm - N/A   Scattered Clouds
12:56 AM 35.1 °F - 32.2 °F 89% 30.32 in 10.0 mi Calm Calm - N/A   Scattered Clouds
1:15 AM 35.6 °F - 32.9 °F 90% 30.33 in 10.0 mi Calm Calm - N/A   Clear
1:38 AM 35.2 °F - 32.9 °F 91% 30.32 in 10.0 mi Calm Calm - N/A   Clear
1:56 AM 34.7 °F - 32.4 °F 91% 30.31 in 10.0 mi Calm Calm - N/A   Clear
2:15 AM 34.7 °F - 32.4 °F 91% 30.31 in 10.0 mi Calm Calm - N/A   Clear
2:16 AM 34.9 °F - 32.4 °F 91% 30.31 in 10.0 mi Calm Calm - N/A   Clear
2:35 AM 35.2 °F - 32.5 °F 90% 30.31 in 10.0 mi Calm Calm - N/A   Clear
2:59 AM 35.1 °F - 32.9 °F 92% 30.31 in 10.0 mi Calm Calm - N/A   Scattered Clouds
3:17 AM 35.8 °F - 33.1 °F 90% 30.31 in 10.0 mi Calm Calm - N/A   Mostly Cloudy
3:35 AM 37.0 °F - 34.2 °F 89% 30.31 in 10.0 mi Calm Calm - N/A   Mostly Cloudy
3:36 AM 37.0 °F - 34.2 °F 89% 30.31 in 10.0 mi Calm Calm - N/A   Mostly Cloudy
3:55 AM 37.4 °F - 34.5 °F 89% 30.31 in 10.0 mi Calm Calm - N/A   Scattered Clouds
3:56 AM 37.4 °F - 34.5 °F 89% 30.31 in 10.0 mi Calm Calm - N/A   Scattered Clouds
4:15 AM 38.1 °F - 35.8 °F 91% 30.30 in 10.0 mi Calm Calm - N/A   Clear
4:20 AM 37.0 °F - 34.7 °F 91% 30.30 in 10.0 mi Calm Calm - N/A   Clear
4:38 AM 36.5 °F - 34.5 °F 93% 30.30 in 10.0 mi Calm Calm - N/A   Scattered Clouds
4:56 AM 35.6 °F 32.8 °F 34.0 °F 94% 30.30 in 10.0 mi WNW 3.5 mph - N/A   Clear
5:15 AM 36.1 °F 33.5 °F 35.8 °F 99% 30.31 in 10.0 mi SW 3.5 mph - N/A   Scattered Clouds
5:35 AM 35.6 °F 32.8 °F 35.1 °F 98% 30.31 in 10.0 mi SW 3.5 mph - N/A   Mostly Cloudy
5:36 AM 35.6 °F 32.8 °F 35.1 °F 98% 30.31 in 10.0 mi SW 3.5 mph - N/A   Mostly Cloudy
5:59 AM 36.9 °F 34.3 °F 36.5 °F 99% 30.31 in 10.0 mi WSW 3.5 mph - N/A   Overcast
6:17 AM 37.8 °F 35.3 °F 37.4 °F 99% 30.31 in 10.0 mi SW 3.5 mph - N/A   Overcast
6:36 AM 38.3 °F 35.9 °F 37.8 °F 98% 30.31 in 10.0 mi WSW 3.5 mph - N/A   Overcast
6:55 AM 38.7 °F 36.3 °F 37.4 °F 95% 30.32 in 10.0 mi West 3.5 mph - N/A   Overcast
6:56 AM 38.8 °F 36.5 °F 37.4 °F 95% 30.32 in 10.0 mi West 3.5 mph - N/A   Overcast
7:15 AM 38.8 °F 36.5 °F 36.5 °F 91% 30.31 in 10.0 mi West 3.5 mph - N/A   Overcast
7:16 AM 38.8 °F 36.5 °F 36.5 °F 91% 30.31 in 10.0 mi West 3.5 mph - N/A   Overcast
7:38 AM 39.4 °F - 36.1 °F 88% 30.31 in 10.0 mi Calm Calm - N/A   Overcast
7:57 AM 40.1 °F 38.0 °F 36.1 °F 86% 30.30 in 10.0 mi WSW 3.5 mph - N/A   Overcast
8:15 AM 39.7 °F - 36.5 °F 88% 30.30 in 10.0 mi Calm Calm - N/A   Overcast
8:35 AM 40.1 °F 38.0 °F 36.7 °F 88% 30.30 in 10.0 mi West 3.5 mph - N/A   Overcast
8:55 AM 40.5 °F 37.3 °F 36.5 °F 86% 30.31 in 10.0 mi West 4.6 mph - N/A   Overcast
9:18 AM 40.8 °F 37.8 °F 36.7 °F 85% 30.31 in 10.0 mi WSW 4.6 mph - N/A   Overcast
9:36 AM 41.9 °F 40.0 °F 37.4 °F 84% 30.31 in 10.0 mi SW 3.5 mph - N/A   Overcast
9:55 AM 41.9 °F 39.0 °F 36.3 °F 81% 30.31 in 10.0 mi SW 4.6 mph - N/A   Overcast
10:15 AM 42.4 °F 40.7 °F 36.7 °F 80% 30.30 in 10.0 mi WSW 3.5 mph - N/A   Overcast
10:57 AM 44.6 °F 40.2 °F 34.7 °F 68% 30.30 in 10.0 mi West 8.1 mph - N/A   Overcast
11:16 AM 45.3 °F 41.6 °F 34.0 °F 65% 30.28 in 10.0 mi West 6.9 mph - N/A   Mostly Cloudy
11:35 AM 46.8 °F - 34.3 °F 62% 30.28 in 10.0 mi West 9.2 mph - N/A   Scattered Clouds
11:55 AM 46.0 °F 41.4 °F 33.6 °F 62% 30.27 in 10.0 mi West 9.2 mph - N/A   Clear
12:36 PM 49.1 °F - 32.2 °F 52% 30.27 in 10.0 mi West 9.2 mph - N/A   Clear
12:55 PM 50.4 °F - 32.2 °F 50% 30.26 in 10.0 mi WSW 9.2 mph - N/A   Scattered Clouds
12:56 PM 50.4 °F - 32.2 °F 50% 30.26 in 10.0 mi West 9.2 mph - N/A   Scattered Clouds
1:15 PM 50.9 °F - 32.2 °F 49% 30.25 in 10.0 mi West 9.2 mph - N/A   Scattered Clouds
1:38 PM 50.4 °F - 31.8 °F 49% 30.24 in 10.0 mi WNW 10.4 mph - N/A   Mostly Cloudy
1:57 PM 49.5 °F - 30.7 °F 49% 30.23 in 10.0 mi West 8.1 mph - N/A   Scattered Clouds
2:15 PM 50.7 °F - 30.6 °F 46% 30.23 in 10.0 mi SW 9.2 mph - N/A   Clear
2:36 PM 50.7 °F - 30.2 °F 45% 30.23 in 10.0 mi WSW 4.6 mph 16.1 mph N/A   Clear
2:55 PM 51.6 °F - 30.6 °F 45% 30.23 in 10.0 mi WSW 10.4 mph 16.1 mph N/A   Clear
3:00 PM 51.4 °F - 30.4 °F 44% 30.22 in 10.0 mi SW 5.8 mph 10.4 mph N/A   Clear
3:18 PM 52.2 °F - 31.3 °F 45% 30.22 in 10.0 mi WSW 8.1 mph - N/A   Mostly Cloudy
3:36 PM 52.3 °F - 29.3 °F 41% 30.21 in 10.0 mi West 6.9 mph - N/A   Scattered Clouds
3:55 PM 52.2 °F - 28.8 °F 41% 30.20 in 10.0 mi WNW 4.6 mph - N/A   Clear
4:15 PM 52.3 °F - 29.3 °F 41% 30.20 in 10.0 mi WNW 9.2 mph - N/A   Scattered Clouds
4:16 PM 52.3 °F - 29.1 °F 41% 30.20 in 10.0 mi NW 9.2 mph - N/A   Scattered Clouds
4:38 PM 52.2 °F - 28.6 °F 40% 30.19 in 10.0 mi West 8.1 mph - N/A   Clear
4:57 PM 51.4 °F - 28.2 °F 41% 30.19 in 10.0 mi Calm Calm - N/A   Clear
5:15 PM 50.9 °F - 29.1 °F 43% 30.19 in 10.0 mi NW 5.8 mph - N/A   Clear
5:35 PM 48.7 °F - 33.8 °F 56% 30.20 in 10.0 mi NE 5.8 mph - N/A   Clear
5:36 PM 48.6 °F - 34.0 °F 57% 30.20 in 10.0 mi NE 6.9 mph - N/A   Clear
5:55 PM 47.5 °F - 33.8 °F 59% 30.20 in 10.0 mi NE 6.9 mph - N/A   Clear
6:00 PM 46.9 °F - 33.8 °F 60% 30.20 in 10.0 mi NNE 6.9 mph - N/A   Clear
6:17 PM 45.5 °F - 33.6 °F 63% 30.20 in 10.0 mi Calm Calm - N/A   Clear
6:36 PM 44.8 °F - 33.8 °F 65% 30.20 in 10.0 mi Calm Calm - N/A   Clear
6:55 PM 44.2 °F 42.7 °F 33.8 °F 67% 30.20 in 10.0 mi North 3.5 mph - N/A   Clear
6:56 PM 43.9 °F 42.3 °F 33.6 °F 67% 30.20 in 10.0 mi North 3.5 mph - N/A   Clear
7:15 PM 40.6 °F 37.5 °F 33.4 °F 75% 30.20 in 10.0 mi North 4.6 mph - N/A   Clear
7:39 PM 38.5 °F - 32.0 °F 78% 30.22 in 10.0 mi Calm Calm - N/A   Clear
7:57 PM 36.9 °F - 32.0 °F 83% 30.22 in 10.0 mi Calm Calm - N/A   Clear
8:15 PM 34.7 °F - 31.1 °F 87% 30.22 in 10.0 mi Calm Calm - N/A   Clear
8:16 PM 34.9 °F - 31.3 °F 87% 30.22 in 10.0 mi Calm Calm - N/A   Clear
8:35 PM 34.3 °F 31.4 °F 29.8 °F 84% 30.21 in 10.0 mi SW 3.5 mph - N/A   Clear
8:55 PM 33.3 °F - 30.9 °F 91% 30.22 in 10.0 mi Calm Calm - N/A   Clear
9:18 PM 33.1 °F - 30.7 °F 91% 30.22 in 10.0 mi Calm Calm - N/A   Clear
9:36 PM 32.5 °F - 29.1 °F 87% 30.22 in 10.0 mi Calm Calm - N/A   Clear
9:55 PM 32.0 °F 28.7 °F 28.9 °F 88% 30.22 in 10.0 mi WSW 3.5 mph - N/A   Clear
9:56 PM 32.0 °F 27.5 °F 28.9 °F 88% 30.22 in 10.0 mi WSW 4.6 mph - N/A   Clear
10:15 PM 31.3 °F 27.9 °F 28.4 °F 89% 30.22 in 10.0 mi WSW 3.5 mph - N/A   Clear
10:39 PM 30.7 °F - 28.2 °F 90% 30.22 in 10.0 mi Calm Calm - N/A   Clear
10:57 PM 32.0 °F - 28.8 °F 88% 30.22 in 10.0 mi Calm Calm - N/A   Clear
11:15 PM 30.6 °F 27.1 °F 27.9 °F 90% 30.23 in 10.0 mi WSW 3.5 mph - N/A   Clear
11:16 PM 30.6 °F 27.1 °F 27.7 °F 89% 30.23 in 10.0 mi WSW 3.5 mph - N/A   Clear
11:35 PM 28.2 °F 23.1 °F 26.8 °F 94% 30.23 in 10.0 mi SW 4.6 mph - N/A   Clear
11:36 PM 28.4 °F 23.3 °F 27.1 °F 95% 30.23 in 10.0 mi WSW 4.6 mph - N/A   Clear
11:55 PM 31.3 °F - 29.8 °F 94% 30.22 in 10.0 mi Calm Calm - N/A   Clear